Regional Weather Roundup
Issued by NWS

Home | Current Version | Previous Version | Text Only | Print | Product List | Glossary On
Versions: 1 2 3 4 5 6 7 8 9 10 11 12 13 14 15 16 17 18 19 20 21 22 23 24 25 26 27 28 29 30 31 32 33 34 35 36 37 38 39 40 41 42 43 44 45 46 47 48 49 50
000
ASUS42 KFFC 231403
RWRGA
WEATHER ROUNDUP FOR GEORGIA
NATIONAL WEATHER SERVICE PEACHTREE CITY GA
900 AM EST SUN NOV 23 2014

NOTE: "FAIR" INDICATES FEW OR NO CLOUDS BELOW 12,000 FEET WITH NO
SIGNIFICANT WEATHER AND/OR OBSTRUCTIONS TO VISIBILITY.

* = USE WITH CAUTION. THE STATIONS MARKED WITH AN ASTERISK MAY NOT
REPORT WEATHER SUCH AS PRECIPITATION, FOG, OR THUNDER AND ARE NOT
QUALITY CONTROLLED BY NWS.

THE REMARK "TC" DENOTES TEMPERATURE READING IN DEGREES CELSIUS.

GAZ001>058-231500-
NORTH GEORGIA

CITY           SKY/WX    TMP DP  RH WIND       PRES   REMARKS
ATLANTA        RAIN      50  48  93 E18       30.01F VSB 1/4
ATHENS         RAIN      46  45  96 E10       30.06F FOG
CHAMBLEE       CLOUDY    46  44  93 E6        30.02F FOG
PEACHTREE CITY LGT RAIN  52  51  97 E9        30.00S FOG
ROME           CLOUDY    50  48  93 E9        29.97F
WEST ATLANTA   LGT RAIN  48  46  93 NE10      30.01F
GAINESVILLE    HVY RAIN  46  45  96 E15G25    30.07S FOG
CARTERSVILLE   HVY RAIN  49  46  90 E10G18    29.99F FOG


CITY           SKY/WX    TMP DP  RH WIND       PRES   REMARKS
DALTON*        DRIZZLE   52  52 100 S5        29.98F
MARIETTA       LGT RAIN  47  47  99 E8        30.01F FOG
KENNESAW*      LGT RAIN  46  45  93 MISG      30.03F FOG
$$

GAZ059>098-102>109-231500-
CENTRAL GEORGIA

CITY           SKY/WX    TMP DP  RH WIND       PRES   REMARKS
AUGUSTA-BUSH   HVY RAIN  57  55  93 E8        30.09S FOG
AUGUSTA-DANIEL HVY RAIN  57  55  93 E10       30.09S FOG
COLUMBUS       LGT RAIN  57  55  94 E9        29.94F FOG
MACON          LGT RAIN  58  58 100 E9        30.00F FOG
ROBINS AFB     RAIN      59  58  96 E3        30.00S FOG


CITY           SKY/WX    TMP DP  RH WIND       PRES   REMARKS
LAGRANGE*      CLOUDY    61  60  96 SE6       29.95S FOG
SYLVANIA*      RAIN      59  59  97 E12       30.08S
MILLEDGEVILLE* HVY RAIN  55  55 100 E3        30.04R
$$

GAZ099>101-110>166-231500-
SOUTH GEORGIA

CITY           SKY/WX    TMP DP  RH WIND       PRES   REMARKS
SAVANNAH       LGT RAIN  64  60  87 E16       30.05F FOG
VALDOSTA       CLOUDY    69  67  93 S10       29.97S
ALMA           LGT RAIN  62  61  96 E3        30.00F FOG
ST SIMONS      CLOUDY    64  64 100 E3        30.02S FOG
FT STEWART     LGT RAIN  64  63  95 E8        30.02F
ALBANY         CLOUDY    64  62  93 E8        29.97S FOG
HUNTER AFB     LGT RAIN  63  63 100 E10       30.04F
MOODY AFB      CLOUDY    67  67  97 S9        29.97S
BRUNSWICK      CLOUDY    68  64  88 E9        30.03S


CITY           SKY/WX    TMP DP  RH WIND       PRES   REMARKS
BAINBRIDGE*    CLOUDY    66  64  94 E3        29.93S FOG
MOULTRIE*      CLOUDY    64  64 100 SE3       29.97S FOG
VIDALIA*       RAIN      61  61 100 E8        30.04S
WAYCROSS*      CLOUDY    70  70  99 SE5       30.01R
DOUGLAS*       DRIZZLE   63  61  94 E7        30.01F
$$


USA.gov is the U.S. government's official web portal to all federal, state and local government web resources and services.